{"data":{"norad_id":59188,"epoch":"2026-09-20T21:05:57.973344Z","epoch_age_seconds":126068,"freshness":"FRESH","line1":"1 59188U 24045L   26263.87914321 -.00000228  00000+0  12503-5 0  9998","line2":"2 59188  43.0023  70.1585 0001400 274.7799  85.2892 15.27583814143018","mean_motion":15.27583814,"eccentricity":0.00014,"inclination_deg":43.0023,"raan_deg":70.1585,"arg_perigee_deg":274.7799,"mean_anomaly_deg":85.2892,"bstar":1.2503e-6,"rev_number":14301,"period_min":94.266513352831,"perigee_km":482.07711112076,"apogee_km":483.99824002992,"semimajor_km":6861.1746755753,"source":"CELESTRAK","updated_at":"2026-09-21T09:00:34.063717Z"}}